SL-8 R/B

Satellite information

Favourite Embed

Satellite Type and Status

ROCKET BODYIN ORBIT

Key statistics

Satellite SL-8 R/B at a glance.

Uptime

11764

Days in orbit

Revolutions

≈ 14.4

Per day

Orbit

LEO

Low Earth Orbit

Inclination

74.0

Latest

Satellite identification and parameters

Extended collection of information and parameters for SL-8 R/B.

Object identification

Identified? True

Debris? False

Object name: SL-8 R/B

International designator: 1993-036B

Object number (NORAD): 22676

Object ID (CCSDS): 22676

Country: COMMONWEALTH OF INDEPENDENT STATES (CIS)

Current information (Y/N): Y

RCS size: LARGE

Orbital parameters

Period: 100.339 minutes

Inclination: 74.0404 deg

SMA: 7152.751 km

Apoapsis: 787.106 km

Periapsis: 762.126 km

RAAN: 98.6039 deg

Eccentricy: 0.00174624

Argument of periapsis: 113.7349 deg

Mean anomaly: 246.5637 deg

Mean motion: 14.35136161 rev/day

Mean motion (dot): 0.00000242 rev/day2

B* drag term: 0.000093550294 1/REarth

Two-line elements (TLE)

Creation date: Aug. 31, 2025, 2:26 a.m.

Reference frame: TEME

Reference center: EARTH

Epoch: Aug. 30, 2025, 9:47 p.m. UTC

TLE line 0: 0 SL-8 R/B

TLE line 1: 1 22676U 93036B 25242.90824193 .00000242 00000-0 93550-4 0 9999

TLE line 2: 2 22676 74.0404 98.6039 0017462 113.7349 246.5637 14.35136161684650

Live tracking on map

Real-time ground track for satellite SL-8 R/B.

In-orbit conjunctions

A list of the most updated potential collisions computed for object SL-8 R/B.

Target Orbit TCA Probability of collision Miss distance Type
CZ-6A DEB LEO 2025-08-14 09:01:45 0.0001436406 192.0 (m) DEBRIS
COSMOS 397 DEB * LEO 2025-02-14 18:07:04 0.0001811495 683.0 (m) DEBRIS
CZ-6A DEB LEO 2025-01-11 10:10:48 0.0002802525 370.0 (m) DEBRIS
CZ-6A DEB SSO 2024-12-23 23:12:08 0.0001143378 211.0 (m) DEBRIS
ORBCOMM FM 28 LEO 2024-11-26 17:36:06 0.0004206528 811.0 (m) PAYLOAD

Associated space launch

Military communications satellite. Destroyed in a collision with Iridium 33.

SL-8 R/B was lifted into orbit during the mission ‘Kosmos-3M | Strela-2M 51’, on board a Kosmos-3M space rocket.

The launch took place on June 16, 1993, 4:17 a.m. from 132/1 (132L).

For more information about the launch, click the button.

Launch to space Kosmos-3M | Strela-2M 51
Kosmos-3M | Strela-2M 51

Agency: N/A

Status: Launch Successful

Launch date: June 16, 1993, 4:17 a.m. UTC

Rocket: Kosmos-3M

Launch pad: 132/1 (132L)

Location: Plesetsk Cosmodrome, Russian Federation

...

Latest news about this satellite

There are no fresh news available about this satellite. Check back as we update our databases every day.


Newsletter sign-up

Weekly statistics, charts and insights to help you stay on top of the space industry.